Location: Brienzwiler
(46.7508°N, 8.1014°E)
Time: 07:32:46
(UTC+00:00)

Cosmos 2341 Rocket - Pass Details

Date: 05 July 2020
Orbit: 968 x 1004 km, 82.9° (Epoch: 05 August)

Event Time Altitude Azimuth Distance (km) Brightness Sun altitude
Exits shadow 23:11:49 28° 213° (SSW) 1,726 4.9 -20.4°
Maximum altitude 23:15:05 60° 282° (WNW) 1,108 4.3 -20.5°
Drops below altitude 10° 23:21:14 10° 2° (N) 2,723 7.5 -20.5°
Sets 23:23:48 0° 7° (N) 3,673 8.5 -20.6°
